TimeEST,TemperatureF,Dew PointF,Humidity,Sea Level PressureIn,VisibilityMPH,Wind Direction,Wind SpeedMPH,Gust SpeedMPH,PrecipitationIn,Events,Conditions,WindDirDegrees,DateUTC
6:00 AM,76,75,97,29.86,6,Calm,Calm,,,,Overcast,,2013-09-05 11:00:00
6:00 AM,-9999,-9999,N/A,29.86,5.0,Calm,Calm,-,N/A,Rain,Rain,0,2013-09-05 11:00:00
7:00 AM,77.0,75.2,94,29.86,5.0,Calm,Calm,-,N/A,,Mostly Cloudy,0,2013-09-05 12:00:00
8:00 AM,78.8,75.2,89,29.86,5.0,Calm,Calm,-,N/A,,Mostly Cloudy,0,2013-09-05 13:00:00
9:00 AM,80.6,75.2,84,29.89,5.0,Calm,Calm,-,N/A,,Mostly Cloudy,0,2013-09-05 14:00:00
10:00 AM,82,75,75,29.88,9,SW,4.6,,,,Overcast,220,2013-09-05 15:00:00
10:00 AM,82.4,75.2,79,29.89,6.2,Calm,Calm,-,N/A,,Mostly Cloudy,0,2013-09-05 15:00:00
11:00 AM,84.2,77.0,79,29.89,6.2,West,4.6,-,N/A,,Mostly Cloudy,270,2013-09-05 16:00:00
12:00 PM,84.2,75.2,74,29.89,6.2,SW,9.2,-,N/A,,Scattered Clouds,230,2013-09-05 17:00:00
1:00 PM,86,77,68,29.85,12,SSW,13.8,,,,Overcast,210,2013-09-05 18:00:00
1:00 PM,86.0,77.0,74,29.86,6.2,SW,11.5,-,N/A,,Scattered Clouds,230,2013-09-05 18:00:00
2:00 PM,84.2,75.2,74,29.83,6.2,SW,13.8,-,N/A,,Scattered Clouds,220,2013-09-05 19:00:00
3:00 PM,-9999,-9999,N/A,29.80,6.2,WSW,13.8,-,N/A,,Scattered Clouds,250,2013-09-05 20:00:00
4:00 PM,84.2,75.2,74,29.80,6.2,SW,9.2,-,N/A,,Scattered Clouds,220,2013-09-05 21:00:00
5:00 PM,82.4,75.2,79,29.80,6.2,SSW,9.2,-,N/A,,Mostly Cloudy,210,2013-09-05 22:00:00
6:00 PM,80.6,75.2,84,29.80,3.7,SW,6.9,-,N/A,Thunderstorm,Thunderstorm,230,2013-09-05 23:00:00
7:00 PM,77.0,75.2,94,29.83,4.3,South,4.6,-,N/A,Rain-Thunderstorm,Light Thunderstorms and Rain,180,2013-09-06 00:00:00
8:00 PM,77.0,75.2,94,29.86,4.3,South,4.6,-,N/A,Rain-Thunderstorm,Light Thunderstorms and Rain,180,2013-09-06 01:00:00
9:00 PM,78.8,75.2,89,29.86,6.2,Calm,Calm,-,N/A,,Scattered Clouds,0,2013-09-06 02:00:00
10:00 PM,77.0,75.2,94,29.89,3.7,Calm,Calm,-,N/A,Rain-Thunderstorm,Thunderstorms and Rain,0,2013-09-06 03:00:00